This demonstration page uses our WeatherBlox Daily Observations layout. Learn more.

Left ArrowRight Arrow

Hourly Observations for August 8, 2018

Temp ( °F °C ) Dew Point ( °F °C ) Humidity (%) Winds ( mph kmh ) Pressure ( in mb ) Visibility ( mi km ) Precip ( " mm )
12:26 am 00:26 Mostly Cloudy 82 27.8 74 23.3 77 77 SSW 10 17 29.97 1015 10 16 0.00 0.00
12:59 am 00:59 Mostly Cloudy 81 27.2 74 23.3 79 79 SSW 10 17 29.97 1015 10 16 0.00 0.00
1:37 am 01:37 Mostly Cloudy with Thunderstorms 81 27.2 75 23.9 82 82 SSW 10 17 29.97 1015 10 16 0.00 0.00
1:48 am 01:48 Mostly Cloudy 81 27.2 75 23.9 82 82 SW 12 19 29.97 1015 10 16 0.00 0.00
1:59 am 01:59 Mostly Cloudy 81 27.2 75 23.9 82 82 SW 8 13 29.96 1015 10 16 0.00 0.00
2:59 am 02:59 Mostly Cloudy 80 26.7 75 23.9 85 85 SW 9 15 29.94 1014 10 16 0.00 0.00
3:59 am 03:59 Mostly Cloudy 79 26.1 75 23.9 88 88 SW 8 13 29.95 1014 9 14 0.00 0.00
4:59 am 04:59 Mostly Cloudy 79 26.1 74 23.3 85 85 SW 8 13 29.95 1014 10 16 0.00 0.00
5:59 am 05:59 Mostly Cloudy 77 25 73 22.8 88 88 SW 6 9 29.96 1015 10 16 0.00 0.00
6:59 am 06:59 Mostly Cloudy 78 25.6 73 22.8 85 85 WSW 8 13 29.98 1015 9 14 0.00 0.00
7:59 am 07:59 Partly Cloudy 79 26.1 72 22.2 79 79 SW 9 15 29.98 1015 10 16 0.00 0.00
8:59 am 08:59 Partly Cloudy 80 26.7 71 21.7 74 74 WSW 12 19 29.98 1015 10 16 0.00 0.00
9:59 am 09:59 Mostly Sunny 82 27.8 72 22.2 72 72 W 8 13 29.98 1015 10 16 0.00 0.00
10:59 am 10:59 Partly Cloudy 85 29.4 72 22.2 65 65 WSW 7 11 29.97 1015 10 16 0.00 0.00
11:59 am 11:59 Mostly Sunny 87 30.6 73 22.8 63 63 W 9 15 29.96 1014 10 16 0.00 0.00
12:59 pm 12:59 Mostly Sunny 89 31.7 73 22.8 59 59 WSW 9 15 29.94 1014 10 16 0.00 0.00
1:59 pm 13:59 Mostly Sunny 91 32.8 74 23.3 57 57 WSW 9 15 29.93 1014 10 16 0.00 0.00
2:59 pm 14:59 Partly Cloudy 92 33.3 73 22.8 54 54 W 9 15 29.92 1013 10 16 0.00 0.00
3:59 pm 15:59 Partly Cloudy 91 32.8 73 22.8 56 56 W 12 19 29.91 1013 10 16 0.00 0.00
4:59 pm 16:59 Mostly Sunny 92 33.3 72 22.2 52 52 W 6 9 29.88 1012 10 16 0.00 0.00
5:59 pm 17:59 Mostly Sunny 91 32.8 72 22.2 54 54 W 8 13 29.88 1012 10 16 0.00 0.00
6:59 pm 18:59 Partly Cloudy 91 32.8 71 21.7 52 52 W 7 11 29.87 1012 10 16 0.00 0.00
7:59 pm 19:59 Partly Cloudy 89 31.7 72 22.2 57 57 WSW 6 9 29.89 1012 10 16 0.00 0.00
8:59 pm 20:59 Partly Cloudy 85 29.4 73 22.8 68 68 SSW 5 7 29.89 1012 10 16 0.00 0.00
9:59 pm 21:59 Partly Cloudy 86 30 72 22.2 63 63 SW 8 13 29.91 1013 10 16 0.00 0.00
10:59 pm 22:59 Partly Cloudy 85 29.4 72 22.2 65 65 SW 12 19 29.91 1013 10 16 0.00 0.00
11:59 pm 23:59 Partly Cloudy 82 27.8 70 21.1 67 67 WSW 10 17 29.89 1012 10 16 0.00 0.00

Powered by AerisWeather